Location: Ústí nad Labem
(50.6611°N, 14.0531°E)
Time: 02:13:26
(UTC+02:00)

Vanguard 2 Rocket - All Passes

Search period start: 17 April 2024 00:00
Search period end: 27 April 2024 00:00
Orbit: 555 x 3307 km, 32.9° (Epoch: 16 April)

Date Brightness Start Highest point End Pass type
(mag) Time Alt. Az. Time Alt. Az. Time Alt. Az.
17 Apr - 01:47:23 10° WSW 02:05:20 43° S 02:19:32 10° ESE visible
17 Apr - 04:04:38 10° W 04:19:43 31° SSW 04:30:43 10° SSE visible
17 Apr - 06:27:15 10° WSW 06:31:41 12° SW 06:35:37 10° SSW daylight
17 Apr - 20:25:02 10° SSE 20:32:51 14° SE 20:41:12 10° ESE visible
17 Apr - 22:31:01 10° SSW 22:46:22 33° SSE 23:02:04 10° E visible
18 Apr - 00:43:47 10° WSW 01:01:40 43° S 01:17:15 10° ESE visible
18 Apr - 02:59:52 10° WSW 03:16:50 38° SSW 03:29:40 10° SE visible
18 Apr - 05:19:13 10° W 05:29:53 20° SW 05:38:14 10° S visible
18 Apr - 21:29:51 10° SSW 21:43:09 27° SE 21:57:43 10° E visible
18 Apr - 23:40:48 10° SW 23:57:55 41° SSE 00:14:23 10° ESE visible
19 Apr - 01:55:37 10° WSW 02:13:28 42° S 02:28:00 10° SE visible
19 Apr - 04:13:22 10° W 04:27:36 27° SW 04:38:28 10° SSE visible
19 Apr - 20:29:50 10° S 20:40:21 20° SE 20:52:12 10° E visible
19 Apr - 22:38:28 10° SW 22:54:15 37° SSE 23:10:56 10° ESE visible
20 Apr - 00:51:55 10° WSW 01:09:47 44° S 01:25:46 10° ESE visible
20 Apr - 03:08:22 10° W 03:24:47 34° SSW 03:37:42 10° SSE visible
20 Apr - 05:29:21 10° WSW 05:37:29 15° SW 05:44:22 10° SSW visible
20 Apr - 19:32:23 10° SSE 19:38:00 12° SE 19:44:07 10° ESE daylight
20 Apr - 21:36:53 10° SSW 21:50:52 32° SSE 22:06:49 10° E visible
20 Apr - 23:48:48 10° SW 00:05:57 43° S 00:22:57 10° ESE visible
21 Apr - 02:04:00 10° WSW 02:21:30 40° SSW 02:36:12 10° SE visible
21 Apr - 04:22:28 10° W 04:35:17 23° SW 04:45:38 10° S visible
21 Apr - 20:36:10 10° S 20:47:54 25° SE 21:01:52 10° E visible
21 Apr - 22:46:17 10° SW 23:02:11 41° SSE 23:19:33 10° ESE visible
22 Apr - 01:00:13 10° WSW 01:17:51 43° S 01:34:04 10° SE visible
22 Apr - 03:17:05 10° W 03:32:35 30° SSW 03:45:20 10° SSE visible
22 Apr - 05:42:57 10° WSW 05:44:54 10° SW 05:46:48 10° SW daylight
22 Apr - 19:36:46 10° SSE 19:45:25 17° SE 19:55:38 10° E daylight
22 Apr - 21:44:25 10° SW 21:58:40 36° SSE 22:15:33 10° E visible
22 Apr - 23:57:01 10° WSW 00:14:00 44° S 00:31:18 10° ESE visible
23 Apr - 02:12:33 10° W 02:29:25 36° SSW 02:44:05 10° SE visible
23 Apr - 04:32:16 10° W 04:42:49 18° SW 04:51:53 10° S visible
23 Apr - 20:43:17 10° SSW 20:55:34 30° SSE 21:10:53 10° E visible
23 Apr - 22:54:23 10° SW 23:10:10 43° S 23:27:58 10° ESE visible
24 Apr - 01:08:40 10° WSW 01:25:49 41° SSW 01:42:06 10° SE visible
24 Apr - 03:26:08 10° W 03:40:14 25° SW 03:52:22 10° S visible
24 Apr - 19:43:03 10° S 19:52:56 22° SE 20:05:22 10° E daylight
24 Apr - 21:52:20 10° SW 22:06:33 39° SSE 22:24:02 10° ESE visible
25 Apr - 00:05:24 10° WSW 00:22:01 43° S 00:39:26 10° SE visible
25 Apr - 02:21:17 10° W 02:37:10 32° SSW 02:51:32 10° SSE visible
25 Apr - 04:43:44 10° WSW 04:50:11 13° SW 04:56:10 10° SSW visible
25 Apr - 18:44:26 10° SSE 18:50:48 15° SE 18:58:20 10° ESE daylight
25 Apr - 20:50:55 10° SSW 21:03:19 34° SSE 21:19:30 10° E visible
25 Apr - 23:02:40 10° WSW 23:18:11 44° S 23:36:09 10° ESE visible
26 Apr - 01:17:16 10° WSW 01:33:42 37° SSW 01:49:48 10° SE visible
26 Apr - 03:35:46 10° W 03:47:43 20° SW 03:58:32 10° S visible
26 Apr - 19:50:12 10° SSW 20:00:34 27° SE 20:14:22 10° E daylight
26 Apr - 22:00:31 10° SW 22:14:30 41° S 22:32:17 10° ESE visible
